Dewpoint
58 58 59 59 60 60 60 60 60 60 61 61 61 61 62 61 61 61 61 61 61 61 61 61 61 62 63 62 62 62 58 44 49 48 44 41 54 64 63 65 66 66 61 52 49 34 33 33 32 32 35 40 41 37 45 40 44 40 33 29 25 28 27 30 27 26 27 24 24 21 21 19 18 22 23 23 22 23 24 27 27 26 27 30 34 37 35 36
57 58 58 58 59 59 60 60 60 60 60 61 61 61 61 61 61 61 61 61 61 61 61 61 61 62 62 62 60 61 55 53 47 46 41 64 65 67 66 65 67 65 59 48 42 37 34 30 31 32 36 36 47 37 40 39 42 37 35 29 23 27 27 30 25 19 18 19 21 20 21 19 20 21 23 20 20 21 20 21 24 25 25 28 34 34 34 35
57 57 58 58 58 58 59 59 60 60 60 61 60 60 60 60 61 61 61 61 61 61 61 61 61 61 62 62 61 60 54 49 48 38 35 63 65 66 65 66 65 66 49 46 44 38 32 30 29 29 36 33 39 36 40 40 38 38 32 29 30 32 30 27 24 20 20 20 19 21 21 19 20 20 23 21 19 21 19 19 21 22 22 25 33 32 33 33
57 57 57 57 58 58 58 58 59 59 60 60 60 60 61 60 61 61 61 61 61 61 61 60 61 61 61 61 61 57 56 47 36 39 46 62 64 64 65 65 65 64 56 44 42 35 32 29 28 27 33 30 31 42 37 39 33 35 31 29 29 29 25 24 23 21 22 21 20 20 21 20 20 20 20 20 19 19 19 20 19 19 20 24 31 32 32 32
57 56 56 56 57 58 58 58 58 59 59 59 60 60 60 60 61 61 61 61 60 61 61 60 60 61 61 62 60 55 49 17 27 47 55 62 64 63 65 66 65 57 53 44 31 30 30 27 27 32 32 26 33 34 36 37 33 35 26 26 26 27 25 25 22 27 22 22 21 23 20 18 22 21 20 20 18 18 18 19 20 20 20 22 29 31 31 31
56 56 56 56 57 57 57 57 58 58 58 59 59 59 60 60 60 61 61 61 60 61 60 61 60 61 61 60 52 55 27 1 39 53 57 60 63 63 64 61 64 60 51 38 32 31 30 29 29 32 27 25 25 25 26 33 33 29 29 27 28 28 27 27 22 25 20 20 20 21 20 21 19 19 20 19 19 19 21 20 20 20 20 21 27 32 31 31
57 56 56 56 56 56 57 57 57 58 58 58 59 59 59 59 60 60 60 60 60 61 60 60 60 61 60 60 53 50 35 30 51 51 57 60 63 64 63 63 60 52 38 28 28 28 32 29 28 29 29 27 25 24 25 26 32 30 28 24 22 24 23 23 22 23 23 19 19 19 22 20 20 18 20 19 19 20 20 21 21 22 24 23 25 31 30 30
57 56 56 56 56 56 57 57 57 57 57 58 58 59 59 59 59 60 60 60 60 60 60 60 61 61 57 56 51 43 40 34 41 51 59 60 60 58 60 52 48 46 35 27 28 26 29 27 25 31 25 24 24 25 28 27 28 29 27 25 24 23 23 23 22 22 22 21 20 23 20 19 19 19 20 19 19 20 20 21 21 21 23 24 24 29 31 30
57 57 57 56 56 55 56 56 56 57 57 57 58 58 59 59 59 59 60 60 60 60 60 61 60 61 57 51 41 35 31 45 45 47 55 56 53 51 48 38 42 34 32 30 28 31 30 28 29 28 23 26 28 23 24 23 22 25 25 23 21 20 20 20 20 19 21 21 21 21 19 20 20 24 19 19 20 20 21 21 21 21 21 22 24 26 29 30
58 57 56 56 55 55 55 55 56 56 57 57 58 58 59 59 59 59 60 60 60 59 59 60 60 59 53 43 40 24 34 44 44 48 52 50 44 40 37 46 37 36 29 28 28 28 28 29 34 37 34 25 27 22 27 26 23 22 22 21 20 19 19 20 19 19 20 21 21 19 19 19 21 21 16 17 19 21 20 20 20 21 20 20 23 25 27 29
58 57 57 56 56 55 55 55 55 56 56 57 57 58 58 58 59 59 59 59 59 59 59 60 60 54 49 45 37 26 44 48 42 42 44 44 40 32 39 45 42 39 37 33 29 26 28 33 43 40 35 21 25 23 24 24 23 22 21 20 20 20 20 20 19 19 19 18 20 20 19 20 21 23 18 18 21 21 20 20 20 22 21 20 21 23 27 27
58 57 57 56 56 55 55 55 55 56 57 57 57 57 58 58 58 58 59 59 59 58 59 60 58 55 47 45 38 30 43 43 42 42 39 41 46 46 49 41 40 47 42 31 34 49 44 41 40 26 20 27 21 23 20 23 22 21 20 19 20 20 19 20 19 19 19 18 20 20 19 18 20 19 19 19 20 20 20 20 21 21 21 23 22 21 24 26
58 57 57 56 56 56 56 56 56 56 57 57 57 57 57 58 58 58 58 59 58 59 59 60 58 53 48 34 38 46 44 40 44 44 46 48 46 47 45 47 44 46 43 40 44 47 46 44 38 29 32 28 25 23 24 25 22 22 20 19 19 19 18 19 19 19 18 18 20 18 16 16 16 19 19 20 19 20 20 20 19 21 22 21 22 22 22 22
58 58 57 56 56 57 57 56 56 56 56 57 57 57 57 58 58 58 58 58 59 59 60 61 55 53 39 29 41 43 44 46 47 44 43 48 36 40 49 48 48 47 47 44 47 45 44 40 36 28 36 26 24 32 22 23 22 19 20 20 19 18 17 18 18 19 17 21 19 18 17 15 15 15 16 19 19 18 18 18 19 20 20 21 23 23 23 23
58 57 57 56 57 57 56 57 56 56 56 56 57 57 57 57 58 58 58 58 58 60 60 60 53 45 34 33 43 43 60 38 41 44 45 41 45 42 46 46 43 43 40 46 42 43 39 42 35 30 24 26 29 23 22 22 22 20 18 19 24 19 19 18 21 18 16 20 19 17 19 16 15 16 16 14 16 18 17 17 18 19 19 19 20 21 22 23
58 57 57 57 57 57 56 56 56 56 56 56 57 57 57 57 57 57 58 57 58 58 57 52 51 47 29 25 38 53 44 35 34 42 44 46 46 39 44 43 42 42 36 31 40 36 35 37 24 25 25 24 23 23 22 22 22 24 18 19 18 23 19 19 20 20 18 19 19 17 16 16 15 16 17 17 15 16 17 17 18 18 19 19 19 20 21 22
58 57 57 57 57 56 56 56 55 56 56 56 57 57 57 57 57 58 58 58 58 58 56 51 46 41 23 31 38 35 35 41 46 43 39 42 49 47 42 40 38 39 39 37 41 39 36 30 35 27 32 25 22 27 20 21 20 21 23 18 22 18 18 19 22 20 24 18 17 17 16 15 15 14 13 14 19 16 17 17 17 18 18 19 20 20 20 21
58 58 57 58 58 56 55 56 56 56 56 56 57 57 55 57 59 58 57 55 56 54 52 55 43 31 28 37 28 25 45 42 44 45 42 40 46 43 40 34 39 37 40 32 36 27 34 26 26 25 27 26 22 24 21 14 15 16 23 21 20 19 19 18 19 20 18 18 17 17 17 16 16 16 16 16 16 18 17 17 17 18 18 19 19 19 20 20
58 58 58 58 58 56 56 56 56 56 56 57 57 55 56 58 54 54 50 52 42 32 28 33 34 23 18 26 33 40 47 47 44 41 39 37 43 43 40 35 39 29 30 27 28 26 31 29 33 26 22 22 21 20 20 17 18 18 21 20 21 19 16 13 15 20 18 17 16 16 16 16 17 17 17 17 17 16 15 17 18 17 17 18 17 18 19 20
57 57 58 58 58 56 56 56 57 57 57 55 52 51 47 42 39 38 40 46 41 25 24 29 32 29 34 30 38 42 49 43 38 40 41 43 39 38 34 31 40 35 28 26 32 28 32 24 26 25 21 20 22 21 20 20 19 18 22 22 17 17 17 17 18 19 19 18 17 16 16 16 16 16 17 17 17 18 17 16 15 16 17 17 17 18 18 18
57 57 57 58 57 57 57 58 58 57 56 53 50 47 31 35 29 25 26 28 40 39 32 27 31 28 23 36 42 39 34 33 38 40 39 47 41 31 29 27 35 31 30 30 29 32 28 24 25 25 21 20 22 22 21 20 20 19 20 21 18 22 18 18 18 19 19 18 17 17 17 17 16 16 16 16 16 15 15 15 15 15 15 16 17 17 18 17
57 57 57 57 58 58 58 58 58 57 56 52 49 47 41 44 45 45 29 27 32 33 37 36 32 28 27 38 40 39 32 25 34 40 44 39 32 23 25 23 29 24 30 29 27 27 27 24 24 24 23 23 21 21 21 21 22 22 20 20 21 20 23 21 21 20 18 19 16 16 15 16 16 16 17 16 16 15 15 16 15 15 15 16 16 17 17 18
57 57 57 58 58 58 58 58 57 57 52 48 46 45 45 45 46 46 45 39 38 37 31 32 30 31 27 31 40 37 24 22 19 39 39 39 35 26 26 21 25 26 29 25 23 23 23 26 26 26 26 24 23 22 20 21 22 20 20 20 19 21 19 15 15 15 15 16 17 17 15 15 15 16 16 16 16 16 18 18 19 20 17 17 16 16 17 17
57 57 57 57 58 58 58 57 57 51 47 45 46 44 46 46 46 46 45 38 30 31 30 27 23 23 26 22 30 33 25 22 20 26 42 34 27 34 27 21 21 24 21 23 20 18 15 22 25 26 27 25 24 23 22 18 17 21 23 20 19 20 19 18 13 20 19 20 20 15 18 18 19 18 19 19 20 20 19 19 19 21 25 23 25 25 24 21
57 57 57 57 58 58 58 57 49 47 47 46 44 45 45 45 45 46 40 36 32 32 40 36 32 31 24 37 38 30 26 26 24 36 40 33 28 24 23 23 20 20 20 21 21 20 18 17 30 26 27 25 26 23 24 24 17 17 21 22 20 20 18 19 20 21 21 21 25 23 16 13 17 18 18 17 18 18 19 19 19 19 19 20 20 21 23 27
57 57 57 58 58 58 58 50 47 48 47 45 45 46 45 45 45 45 37 26 22 31 31 26 34 26 37 28 34 31 20 17 35 37 39 37 38 23 21 20 20 19 18 21 19 22 19 21 25 25 27 28 27 25 27 24 19 18 18 25 22 21 22 22 23 22 21 18 24 23 15 14 15 15 18 18 18 18 18 20 19 19 20 20 21 22 22 23
57 57 58 58 58 57 49 46 48 48 44 45 45 46 45 46 47 41 31 22 20 29 25 36 29 32 39 34 31 21 15 19 38 38 37 40 30 39 18 18 23 20 20 25 21 18 18 19 22 25 24 26 25 23 27 23 21 17 28 27 26 25 24 25 26 26 23 25 26 25 22 18 18 16 16 18 16 17 17 18 20 20 20 20 20 21 21 23
58 57 57 58 58 54 50 50 49 47 46 46 48 46 46 45 46 44 19 14 14 31 30 30 33 40 36 32 40 16 19 27 24 31 32 36 35 31 22 18 18 20 20 23 16 32 17 23 25 26 26 24 22 22 26 28 22 23 25 30 27 26 27 27 25 24 25 20 20 21 23 16 16 15 14 14 13 12 12 14 17 19 20 20 20 21 20 21
58 57 57 58 58 57 54 50 48 47 49 49 47 48 47 46 37 31 20 14 26 26 32 27 37 35 34 32 28 24 23 26 20 27 36 35 36 29 25 24 22 19 19 22 16 23 28 27 28 28 26 23 26 27 28 28 23 26 29 30 29 28 26 24 20 19 21 16 17 19 19 14 13 13 13 15 13 12 12 12 14 16 19 20 21 20 20 20
58 58 58 58 57 54 52 52 49 50 50 49 49 49 47 40 30 22 17 14 26 23 28 30 28 29 30 27 27 28 25 24 26 28 30 28 32 33 26 28 24 22 24 23 25 26 26 28 33 29 26 26 25 26 28 26 28 31 28 25 26 26 24 22 23 20 18 15 18 20 20 16 12 18 13 15 17 14 12 12 13 15 18 18 19 19 22 22
58 58 57 57 55 53 52 49 50 51 51 50 50 50 47 36 26 19 22 27 30 30 28 27 25 30 25 24 22 25 27 23 25 28 26 27 27 26 26 22 29 25 22 22 24 25 24 28 24 28 31 27 27 24 28 28 29 27 23 22 21 21 23 21 19 20 12 14 19 19 20 18 13 14 17 13 15 14 13 12 13 14 15 17 18 19 19 19
58 58 57 57 56 54 50 50 51 51 50 49 48 45 39 32 28 22 28 26 27 30 26 26 30 28 25 29 28 26 24 23 25 25 24 25 25 24 23 20 23 16 18 19 19 24 20 21 26 28 34 27 27 24 26 25 25 26 22 20 16 18 17 10 14 10 12 13 16 18 21 19 14 10 14 13 15 15 15 13 13 13 14 16 16 17 20 23
57 57 57 57 56 55 54 53 52 51 51 51 50 48 39 31 27 32 31 30 30 29 27 31 29 27 30 27 27 31 29 24 25 24 28 28 25 26 29 26 27 22 15 21 19 18 23 27 24 26 26 30 28 20 23 18 20 24 21 21 17 11 9 7 10 12 15 18 20 17 22 13 13 16 16 14 13 13 16 16 17 16 14 14 16 17 18 26
57 57 56 56 57 57 55 52 51 51 50 49 46 41 36 30 31 38 35 32 32 31 36 34 29 31 30 22 28 29 24 31 25 23 26 28 25 23 26 27 27 25 24 23 17 21 16 18 22 26 22 29 26 22 21 20 22 23 24 21 21 18 10 6 10 9 11 14 16 19 16 18 10 15 20 15 15 15 15 16 17 17 17 16 16 17 22 31
56 57 57 56 56 57 53 52 51 51 50 47 43 37 31 31 33 32 31 30 31 28 25 32 30 29 28 29 32 32 24 25 28 28 26 26 24 24 25 24 26 25 26 18 25 20 19 17 20 27 28 29 27 27 26 26 22 23 24 23 17 19 19 12 16 16 11 15 16 15 18 18 16 16 18 21 20 18 20 19 19 17 18 19 20 19 23 32
55 56 57 55 54 56 52 52 51 51 49 44 37 32 32 35 32 33 33 36 34 34 30 28 34 29 27 27 31 31 34 26 31 27 28 27 26 25 29 27 25 24 24 20 26 20 21 18 28 28 29 27 26 28 26 25 17 22 21 19 20 23 19 18 20 18 14 12 14 12 16 18 17 12 12 14 14 14 15 15 17 18 18 18 19 18 28 32
54 55 53 54 55 55 53 51 51 50 48 43 36 32 36 36 40 37 39 32 27 32 34 26 29 24 28 26 26 31 31 31 31 27 25 30 24 27 29 28 30 26 24 22 24 26 20 18 30 27 26 28 24 28 29 29 25 21 18 21 25 28 26 20 14 16 11 12 13 16 13 11 12 12 17 15 13 13 14 13 11 14 18 18 19 19 30 33
53 53 53 53 54 55 52 51 51 49 46 41 35 37 38 37 43 38 38 38 37 38 37 32 32 31 31 30 30 31 35 28 31 28 27 27 23 31 28 28 29 26 24 25 20 31 28 18 19 28 29 29 29 27 26 28 27 21 23 28 20 16 15 19 19 14 14 14 14 13 11 12 12 10 9 9 10 10 11 14 13 12 13 16 16 17 22 28
53 52 48 51 55 54 52 51 50 47 42 37 35 36 39 38 38 38 35 34 36 35 33 36 36 34 33 31 31 28 33 27 31 28 26 27 23 30 26 28 29 28 26 24 23 25 28 22 23 29 28 27 26 26 23 24 27 27 27 22 25 19 19 17 20 19 17 13 14 15 15 12 16 11 8 12 10 12 11 11 12 13 13 13 16 19 21 27
50 48 46 53 55 53 52 51 48 45 40 35 36 36 40 37 39 39 39 37 37 33 34 32 34 31 31 31 31 26 30 32 29 30 29 28 25 29 25 29 27 33 27 25 25 28 25 23 18 25 29 27 21 23 23 24 25 24 23 21 21 18 21 23 20 19 16 14 13 11 11 14 15 12 9 9 9 10 13 15 20 20 20 19 19 21 24 28
51 47 47 53 54 52 51 49 43 39 38 36 38 38 37 38 40 41 41 39 40 41 36 34 35 33 32 34 31 31 30 32 31 29 30 30 25 25 31 28 28 25 30 32 30 30 26 22 20 22 20 20 19 28 26 26 25 24 23 22 21 20 17 16 17 21 19 16 13 11 12 16 15 8 8 10 15 19 17 15 19 18 21 22 24 24 24 27
48 41 45 53 52 52 48 41 39 40 36 36 37 38 37 41 39 38 39 40 40 38 39 37 38 36 35 33 35 34 34 34 35 34 33 31 34 34 31 32 29 31 25 27 28 33 27 27 23 22 22 21 24 26 29 27 27 26 24 23 25 22 20 19 14 17 18 18 19 20 15 15 14 16 15 16 15 13 14 16 16 20 25 25 26 26 26 26
44 42 50 52 52 50 46 40 40 38 35 37 40 38 40 40 39 39 38 38 38 39 39 39 38 36 36 34 35 35 36 34 36 35 36 35 34 33 35 35 36 35 32 26 32 26 32 27 24 24 25 30 28 30 28 28 27 25 26 26 23 21 22 19 19 15 17 19 16 17 16 16 19 17 17 15 17 18 17 17 17 18 19 21 20 21 23 25
42 42 45 51 52 50 43 35 34 36 36 38 37 37 39 40 39 38 38 38 38 37 37 37 38 37 36 37 36 36 39 32 36 36 35 37 37 40 38 37 36 38 35 35 33 32 29 27 26 25 24 22 23 23 22 24 26 23 22 25 27 26 25 24 24 22 19 20 18 16 14 16 21 19 18 17 15 14 14 14 15 15 17 22 22 22 23 25
43 45 46 48 51 49 41 42 40 37 36 36 36 36 36 36 38 38 38 37 39 38 37 36 36 38 38 39 38 38 38 37 33 35 36 34 36 37 35 34 35 36 31 36 35 38 32 30 29 24 21 19 18 18 18 19 22 22 26 25 26 26 25 22 21 22 20 21 20 19 18 20 22 23 21 18 16 15 15 16 16 16 16 18 18 19 19 21
39 33 41 43 47 45 45 45 42 40 37 36 35 36 36 35 37 39 39 38 38 38 37 37 39 40 38 36 36 36 35 38 36 32 34 32 33 33 36 35 34 33 34 37 36 36 30 32 32 29 27 25 25 25 27 29 25 21 24 24 24 25 25 25 23 21 20 22 23 24 23 22 23 20 18 17 17 16 15 15 15 16 17 18 18 20 21 22
41 36 37 34 43 43 42 44 43 42 39 39 34 36 35 35 35 36 39 35 38 37 37 37 37 36 36 37 36 36 36 36 36 35 33 33 33 34 35 35 35 35 36 35 36 32 31 30 31 31 31 30 31 30 31 31 28 27 26 25 26 25 25 26 24 21 26 24 22 25 25 25 23 21 19 18 17 17 17 16 16 17 18 20 20 20 26 22
33 34 38 40 36 33 37 38 42 41 42 41 37 37 35 35 35 34 37 37 37 38 36 37 37 37 36 36 35 34 35 35 35 34 35 35 34 34 34 35 33 34 34 32 35 31 28 27 29 30 29 32 32 32 32 32 31 29 28 28 27 27 26 24 24 24 23 22 20 22 24 24 22 21 20 19 18 17 17 16 17 17 18 18 19 19 19 19
38 37 37 40 35 36 35 36 36 38 38 39 37 38 36 36 35 35 34 33 36 34 37 33 36 37 37 37 36 35 35 32 32 34 33 33 33 33 32 33 34 34 33 32 31 31 29 28 30 31 29 30 31 32 32 32 31 30 30 29 29 28 28 27 25 25 24 23 23 22 22 22 21 21 20 19 19 19 18 18 19 18 18 19 19 19 18 19
31 35 31 36 35 34 33 33 34 35 34 37 34 35 36 35 34 36 37 38 34 35 39 35 35 35 37 37 37 35 35 35 34 32 32 32 32 33 32 33 32 31 32 31 31 31 30 27 31 29 29 29 31 32 32 32 31 30 31 30 30 30 29 29 28 27 26 24 23 23 23 22 22 21 20 20 19 19 19 18 18 19 19 19 19 19 20 20
38 39 38 33 30 30 30 29 31 34 33 34 34 34 36 35 35 37 36 38 36 35 36 36 37 35 35 36 36 37 37 34 33 35 37 36 33 34 32 31 35 32 30 30 29 29 30 28 31 30 27 27 30 30 31 31 31 31 30 31 30 30 29 29 28 28 26 25 25 24 23 22 22 22 22 21 21 21 20 20 20 20 20 20 20 21 21 21
36 37 39 36 29 30 29 28 27 29 26 30 32 34 34 34 36 35 32 36 37 38 37 34 34 34 32 33 33 34 33 33 35 36 37 37 38 39 40 39 38 35 32 32 32 30 30 28 27 27 27 26 29 30 30 30 30 27 29 31 31 31 31 30 30 29 28 27 26 24 24 24 23 23 22 21 21 21 21 21 21 21 22 22 22 22 22 22